• In Hungary
  • List of Countries
  • For 7 days
  • Water Temperature
  • Satellite Maps
  • Weather Map
  • News
  • Weather Widgets
  • user-avatar
    Login

    Hourly Weather Biedaczek

    Today, 21 September, Friday

    Time Temperature Precipitation Wind Pressure Humidity
    00:00 +20°C° 0 mm 3 mps 748 mmHg 70%
    01:00 +20°C° 0 mm 3 mps 748 mmHg 71%
    02:00 +20°C° 0 mm 3 mps 748 mmHg 71%
    03:00 +20°C° 0 mm 3 mps 747 mmHg 70%
    04:00 +20°C° 0 mm 4 mps 747 mmHg 70%
    05:00 +20°C° 0 mm 4 mps 747 mmHg 69%
    06:00 +20°C° 0 mm 4 mps 746 mmHg 68%
    07:00 +20°C° 0 mm 5 mps 746 mmHg 67%
    08:00 +22°C° 0 mm 5 mps 746 mmHg 61%
    09:00 +24°C° 0 mm 6 mps 746 mmHg 55%
    10:00 +27°C° 0 mm 7 mps 746 mmHg 48%
    11:00 +28°C° 0 mm 7 mps 745 mmHg 45%
    12:00 +29°C° 0 mm 7 mps 744 mmHg 42%
    13:00 +31°C° 0 mm 8 mps 743 mmHg 38%
    14:00 +29°C° 0 mm 7 mps 743 mmHg 40%
    15:00 +29°C° 0 mm 7 mps 742 mmHg 41%
    16:00 +28°C° 0 mm 7 mps 741 mmHg 42%
    17:00 +26°C° 0.3 mm 7 mps 741 mmHg 48%
    18:00 +24°C° 0.3 mm 7 mps 741 mmHg 53%
    19:00 +22°C° 0.3 mm 7 mps 741 mmHg 59%
    20:00 +19°C° 1.2 mm 6 mps 742 mmHg 66%
    21:00 +16°C° 1.2 mm 6 mps 743 mmHg 73%
    22:00 +13°C° 1.2 mm 5 mps 743 mmHg 81%
    23:00 +13°C° 0.6 mm 5 mps 744 mmHg 79%

    Tomorrow, 22 September, Saturday

    Time Temperature Precipitation Wind Pressure Humidity
    00:00 +13°C° 0.6 mm 5 mps 744 mmHg 76%
    01:00 +12°C° 0.6 mm 4 mps 745 mmHg 74%
    02:00 +12°C° 0 mm 5 mps 745 mmHg 73%
    03:00 +10°C° 0 mm 5 mps 746 mmHg 73%
    04:00 +10°C° 0 mm 5 mps 746 mmHg 72%
    05:00 +10°C° 0 mm 5 mps 746 mmHg 70%
    06:00 +10°C° 0 mm 6 mps 746 mmHg 68%
    07:00 +10°C° 0 mm 6 mps 746 mmHg 66%
    08:00 +11°C° 0 mm 7 mps 747 mmHg 64%
    09:00 +12°C° 0 mm 7 mps 747 mmHg 62%
    10:00 +12°C° 0 mm 7 mps 747 mmHg 59%
    11:00 +14°C° 0.1 mm 7 mps 747 mmHg 58%
    12:00 +14°C° 0.1 mm 6 mps 748 mmHg 58%
    13:00 +15°C° 0.1 mm 6 mps 748 mmHg 57%
    14:00 +15°C° 0.3 mm 6 mps 748 mmHg 57%
    15:00 +14°C° 0.3 mm 5 mps 748 mmHg 58%
    16:00 +14°C° 0.3 mm 5 mps 748 mmHg 59%
    17:00 +13°C° 0.3 mm 5 mps 748 mmHg 65%
    18:00 +12°C° 0.3 mm 4 mps 748 mmHg 71%
    19:00 +11°C° 0.3 mm 4 mps 748 mmHg 77%
    20:00 +11°C° 0.1 mm 4 mps 748 mmHg 78%
    21:00 +9°C° 0.1 mm 5 mps 747 mmHg 78%
    22:00 +9°C° 0.1 mm 5 mps 747 mmHg 79%
    23:00 +9°C° 0 mm 5 mps 747 mmHg 78%

    Day after tomorrow, 23 September, Sunday

    Time Temperature Precipitation Wind Pressure Humidity
    00:00 +9°C° 0 mm 6 mps 747 mmHg 78%
    01:00 +8°C° 0 mm 6 mps 747 mmHg 77%
    02:00 +8°C° 0 mm 6 mps 747 mmHg 78%
    03:00 +8°C° 0 mm 6 mps 748 mmHg 79%
    04:00 +8°C° 0 mm 6 mps 748 mmHg 80%
    05:00 +8°C° 0 mm 6 mps 748 mmHg 80%
    06:00 +8°C° 0 mm 6 mps 748 mmHg 79%
    07:00 +9°C° 0 mm 6 mps 748 mmHg 78%
    08:00 +10°C° 0 mm 6 mps 749 mmHg 73%
    09:00 +11°C° 0 mm 6 mps 749 mmHg 68%
    10:00 +12°C° 0 mm 7 mps 749 mmHg 63%
    11:00 +14°C° 0 mm 6 mps 749 mmHg 59%
    12:00 +14°C° 0 mm 6 mps 749 mmHg 56%
    13:00 +15°C° 0 mm 6 mps 749 mmHg 53%
    14:00 +15°C° 0.1 mm 6 mps 748 mmHg 54%
    15:00 +14°C° 0.1 mm 5 mps 748 mmHg 55%
    16:00 +14°C° 0.1 mm 4 mps 748 mmHg 56%
    17:00 +13°C° 0 mm 4 mps 747 mmHg 58%
    18:00 +12°C° 0 mm 3 mps 747 mmHg 61%
    19:00 +13°C° 0 mm 2 mps 746 mmHg 63%
    20:00 +12°C° 0.2 mm 2 mps 745 mmHg 66%
    21:00 +12°C° 0.2 mm 2 mps 745 mmHg 70%
    22:00 +10°C° 0.2 mm 2 mps 744 mmHg 73%
    23:00 +10°C° 1.1 mm 3 mps 742 mmHg 79%

    24 September, Monday

    Time Temperature Precipitation Wind Pressure Humidity
    00:00 +9°C° 1.1 mm 3 mps 741 mmHg 84%
    01:00 +8°C° 1.1 mm 4 mps 739 mmHg 89%
    02:00 +8°C° 2 mm 5 mps 737 mmHg 90%
    03:00 +8°C° 2 mm 5 mps 735 mmHg 91%
    04:00 +9°C° 2 mm 6 mps 734 mmHg 92%
    05:00 +9°C° 3.4 mm 6 mps 732 mmHg 93%
    06:00 +9°C° 3.4 mm 6 mps 731 mmHg 93%
    07:00 +9°C° 3.4 mm 7 mps 729 mmHg 94%
    08:00 +9°C° 3.7 mm 8 mps 730 mmHg 92%
    09:00 +7°C° 3.7 mm 9 mps 730 mmHg 91%
    10:00 +7°C° 3.7 mm 10 mps 730 mmHg 89%
    11:00 +7°C° 1.2 mm 10 mps 733 mmHg 87%
    12:00 +7°C° 1.2 mm 10 mps 735 mmHg 85%
    13:00 +8°C° 1.2 mm 10 mps 737 mmHg 83%
    14:00 +8°C° 1.1 mm 11 mps 739 mmHg 81%
    15:00 +7°C° 1.1 mm 11 mps 741 mmHg 80%
    16:00 +7°C° 1.1 mm 11 mps 744 mmHg 79%
    17:00 +7°C° 0.3 mm 11 mps 745 mmHg 76%
    18:00 +6°C° 0.3 mm 10 mps 746 mmHg 73%
    19:00 +6°C° 0.3 mm 9 mps 748 mmHg 70%
    20:00 +6°C° 0 mm 8 mps 749 mmHg 69%
    21:00 +6°C° 0 mm 7 mps 750 mmHg 69%
    22:00 +5°C° 0 mm 7 mps 751 mmHg 68%
    23:00 +5°C° 0 mm 7 mps 752 mmHg 67%

    25 September, Tuesday

    Time Temperature Precipitation Wind Pressure Humidity
    00:00 +5°C° 0 mm 7 mps 753 mmHg 66%
    01:00 +5°C° 0 mm 6 mps 753 mmHg 66%
    02:00 +5°C° 0 mm 6 mps 754 mmHg 65%
    03:00 +5°C° 0 mm 6 mps 755 mmHg 64%
    04:00 +5°C° 0 mm 6 mps 755 mmHg 63%
    05:00 +5°C° 0 mm 6 mps 756 mmHg 61%
    06:00 +7°C° 0 mm 5 mps 756 mmHg 59%
    07:00 +7°C° 0 mm 5 mps 756 mmHg 58%
    08:00 +8°C° 0 mm 6 mps 757 mmHg 55%
    09:00 +10°C° 0 mm 7 mps 757 mmHg 53%
    10:00 +11°C° 0 mm 8 mps 757 mmHg 51%
    11:00 +11°C° 0.1 mm 8 mps 756 mmHg 54%
    12:00 +11°C° 0.1 mm 8 mps 756 mmHg 57%
    13:00 +11°C° 0.1 mm 8 mps 755 mmHg 60%
    14:00 +10°C° 1.9 mm 8 mps 755 mmHg 69%
    15:00 +9°C° 1.9 mm 8 mps 754 mmHg 77%
    16:00 +8°C° 1.9 mm 9 mps 753 mmHg 86%
    17:00 +7°C° 1.5 mm 8 mps 753 mmHg 83%
    18:00 +8°C° 1.5 mm 7 mps 752 mmHg 80%
    19:00 +8°C° 1.5 mm 7 mps 752 mmHg 76%
    20:00 +8°C° 0.1 mm 6 mps 752 mmHg 75%
    21:00 +7°C° 0.1 mm 5 mps 753 mmHg 74%
    22:00 +7°C° 0.1 mm 5 mps 753 mmHg 73%
    23:00 +7°C° 0 mm 5 mps 753 mmHg 74%

    26 September, Wednesday

    Time Temperature Precipitation Wind Pressure Humidity
    00:00 +7°C° 0 mm 5 mps 754 mmHg 74%
    01:00 +7°C° 0 mm 5 mps 755 mmHg 74%
    02:00 +6°C° 0 mm 4 mps 755 mmHg 75%
    03:00 +6°C° 0 mm 4 mps 756 mmHg 76%
    04:00 +7°C° 0 mm 3 mps 756 mmHg 78%
    05:00 +7°C° 0 mm 3 mps 757 mmHg 77%
    06:00 +7°C° 0 mm 3 mps 757 mmHg 76%
    07:00 +8°C° 0 mm 3 mps 758 mmHg 74%
    08:00 +10°C° 0 mm 4 mps 758 mmHg 66%
    09:00 +11°C° 0 mm 4 mps 758 mmHg 57%
    10:00 +13°C° 0 mm 5 mps 759 mmHg 48%
    11:00 +14°C° 0 mm 4 mps 759 mmHg 46%
    12:00 +14°C° 0 mm 4 mps 759 mmHg 45%
    13:00 +15°C° 0 mm 4 mps 759 mmHg 43%
    14:00 +15°C° 0 mm 4 mps 758 mmHg 48%
    15:00 +15°C° 0 mm 4 mps 758 mmHg 52%
    16:00 +14°C° 0 mm 3 mps 758 mmHg 56%
    17:00 +13°C° 0 mm 3 mps 758 mmHg 64%
    18:00 +12°C° 0 mm 3 mps 758 mmHg 72%
    19:00 +12°C° 0 mm 2 mps 758 mmHg 80%
    20:00 +10°C° 0 mm 3 mps 758 mmHg 84%
    21:00 +10°C° 0 mm 3 mps 758 mmHg 87%
    22:00 +10°C° 0 mm 3 mps 758 mmHg 90%
    23:00 +10°C° 0 mm 3 mps 758 mmHg 91%
    Show more